Flight Track Log - Related Links

Times and Time Zones

All times are in EDT time to prevent confusion due to time zone crossing. See the SKW6330 flight status page for this flight to view local times or setup timezone preferences in your user account.

Time Position Orientation Groundspeed Altitude Reporting Facility
EDT Latitude Longitude Course Direction KTS MPH feet Rate Location/Type
22:54 36.7942 -119.7644 158° South 129 148 2,600  Level Oakland Center
22:55 36.7572 -119.7686 185° South 173 199 4,200 1,415 Climbing Oakland Center
22:56 36.7142 -119.7247 141° Southeast 200 230 5,500 1,561 Climbing Oakland Center
22:57 36.7257 -119.7295 158° South  Level FlightAware Approximate
22:57 36.6433 -119.6911 159° South 224 258 7,400  Level Oakland Center
22:58 36.6302 -119.6901 158° South  Level FlightAware Approximate
22:58 36.5853 -119.6600 157° South 227 261 9,100  Level Oakland Center
22:59 36.5392 -119.6362 158° South  Level FlightAware Approximate
22:59 36.5261 -119.6275 156° South 232 267 10,400  Level Oakland Center
23:00 36.4622 -119.5942 157° South 246 283 11,800 1,317 Climbing Oakland Center
23:01 36.3961 -119.5600 157° South 256 295 13,100 1,171 Climbing Oakland Center
23:02 36.3283 -119.5247 157° South 263 303 14,200 1,131 Climbing Oakland Center
23:03 36.2575 -119.4883 157° South 274 315 15,400 1,131 Climbing Oakland Center
23:04 36.1869 -119.4506 157° South 276 318 16,500 1,073 Climbing Oakland Center
23:05 36.1181 -119.4086 154° Southeast 276 318 17,600 927 Climbing Oakland Center
23:06 36.0483 -119.3669 154° Southeast 278 320 18,400 885 Climbing Oakland Center
23:07 35.9778 -119.3283 156° South 278 320 19,400 984 Climbing Oakland Center
23:08 35.8939 -119.2794 155° Southeast 276 318 20,400 927 Climbing Oakland Center
23:09 35.8219 -119.2367 154° Southeast 280 322 21,300 878 Climbing Oakland Center
23:11 35.7494 -119.1936 154° Southeast 283 326 22,200 836 Climbing Oakland Center
23:12 35.6789 -119.1525 155° Southeast 283 326 23,000 393 Climbing Oakland Center
23:13 35.6067 -119.1106 155° Southeast 283 326 23,000  Level Oakland Center
23:13 35.5583 -119.0817 154° Southeast 296 341 23,000  Level Los Angeles Center
23:14 35.4808 -119.0356 154° Southeast 306 352 23,000  Level Los Angeles Center
23:15 35.4042 -118.9917 155° Southeast 305 351 23,000  Level Los Angeles Center
23:16 35.3278 -118.9461 154° Southeast 304 350 23,000 -488 Level Los Angeles Center
23:17 35.2503 -118.9019 155° Southeast 305 351 22,000 -1,355 Descending Los Angeles Center
23:18 35.1472 -118.8428 155° Southeast 329 379 20,200 -1,659 Descending Los Angeles Center
23:19 35.0631 -118.7931 154° Southeast 335 386 18,600 -1,659 Descending Los Angeles Center
23:20 34.9789 -118.7464 156° South 332 382 16,800 -1,707 Descending Los Angeles Center
23:21 34.8906 -118.6958 155° Southeast 334 384 15,100 -1,220 Descending Los Angeles Center
23:22 34.8231 -118.6567 155° Southeast 300 345 14,300 -1,500 Descending Los Angeles Center
23:23 34.7367 -118.6083 155° Southeast 282 325 12,000 -1,597 Descending Los Angeles Center
23:24 34.6625 -118.5661 155° Southeast 292 336 11,000 -488 Descending Los Angeles Center
23:25 34.5911 -118.5244 154° Southeast 283 326 11,000 -390 Level Los Angeles Center
23:27 34.5219 -118.4831 154° Southeast 279 321 10,200 -878 Descending Los Angeles Center
23:28 34.4519 -118.4428 155° Southeast 277 319 9,200 -976 Descending Los Angeles Center
23:29 34.3839 -118.4014 153° Southeast 272 313 8,200 -1,016 Descending Los Angeles Center
23:30 34.3186 -118.3661 156° South 259 298 7,100 -780 Descending Los Angeles Center
23:31 34.2539 -118.3275 154° Southeast 259 298 6,600 -537 Descending Los Angeles Center
23:32 34.1767 -118.2800 153° Southeast 259 298 6,000 -290 Descending Los Angeles Center
23:33 34.1156 -118.2458 155° Southeast 246 283 6,000 -49 Level Los Angeles Center
23:34 34.0578 -118.2117 154° Southeast 235 270 5,900 -585 Descending Los Angeles Center
23:35 34.0039 -118.1886 160° South 213 245 4,800 -1,268 Descending Los Angeles Center
23:36 33.9678 -118.2278 222° Southwest 191 220 3,300 -1,317 Descending Los Angeles Center
23:37 33.9625 -118.2861 264° West 183 211 2,100 -1,161 Descending Los Angeles Center

Login

Don't have an account? Register now (free) for customized features, flight alerts, and more!